Time,TemperatureF,DewpointF,PressureIn,WindDirection,WindDirectionDegrees,WindSpeedMPH,WindSpeedGustMPH,Humidity,HourlyPrecipIn,Conditions,Clouds,dailyrainin,SoftwareType,DateUTC
2013-04-22 00:00:00,42.2,31.6,30.47,SSW,205,4.0,4.0,66,0.00,,,0.00,Wunderground v.1.15,2013-04-22 04:00:00,
2013-04-22 00:05:00,42.0,31.8,30.47,South,176,4.0,4.0,67,0.00,,,0.00,Wunderground v.1.15,2013-04-22 04:05:00,
2013-04-22 00:10:00,41.8,32.0,30.46,South,169,4.0,6.0,68,0.00,,,0.00,Wunderground v.1.15,2013-04-22 04:10:00,
2013-04-22 00:20:00,41.2,32.5,30.47,SW,231,4.0,4.0,71,0.00,,,0.00,Wunderground v.1.15,2013-04-22 04:20:00,
2013-04-22 00:25:00,41.1,32.8,30.46,SE,129,4.0,5.0,72,0.00,,,0.00,Wunderground v.1.15,2013-04-22 04:25:00,
2013-04-22 00:30:00,41.1,32.8,30.47,SW,218,4.0,8.0,72,0.00,,,0.00,Wunderground v.1.15,2013-04-22 04:30:00,
2013-04-22 00:35:00,41.0,33.0,30.47,South,190,5.0,9.0,73,0.00,,,0.00,Wunderground v.1.15,2013-04-22 04:35:00,
2013-04-22 00:45:00,40.6,33.0,30.47,SSE,150,4.0,9.0,74,0.00,,,0.00,Wunderground v.1.15,2013-04-22 04:45:00,
2013-04-22 00:50:00,40.4,33.1,30.46,SSW,208,4.0,9.0,75,0.00,,,0.00,Wunderground v.1.15,2013-04-22 04:50:00,
2013-04-22 00:55:00,40.1,33.1,30.46,ESE,115,4.0,9.0,76,0.00,,,0.00,Wunderground v.1.15,2013-04-22 04:55:00,
2013-04-22 01:00:00,40.0,33.0,30.46,SSW,212,4.0,4.0,76,0.00,,,0.00,Wunderground v.1.15,2013-04-22 05:00:00,
2013-04-22 01:05:00,39.8,32.8,30.46,SSW,203,4.0,7.0,76,0.00,,,0.00,Wunderground v.1.15,2013-04-22 05:05:00,
2013-04-22 01:15:00,39.5,32.9,30.45,South,188,4.0,9.0,77,0.00,,,0.00,Wunderground v.1.15,2013-04-22 05:15:00,
2013-04-22 01:25:00,39.3,32.7,30.46,SSE,160,5.0,5.0,77,0.00,,,0.00,Wunderground v.1.15,2013-04-22 05:25:00,
2013-04-22 01:30:00,39.1,32.5,30.45,South,177,4.0,4.0,77,0.00,,,0.00,Wunderground v.1.15,2013-04-22 05:30:00,
2013-04-22 01:35:00,38.9,32.6,30.45,SW,226,4.0,5.0,78,0.00,,,0.00,Wunderground v.1.15,2013-04-22 05:35:00,
2013-04-22 01:40:00,38.8,32.5,30.45,SSW,204,4.0,9.0,78,0.00,,,0.00,Wunderground v.1.15,2013-04-22 05:40:00,
2013-04-22 01:45:00,38.7,32.4,30.45,SSE,164,5.0,9.0,78,0.00,,,0.00,Wunderground v.1.15,2013-04-22 05:45:00,
2013-04-22 01:55:00,38.3,32.4,30.45,SW,221,3.0,6.0,79,0.00,,,0.00,Wunderground v.1.15,2013-04-22 05:55:00,
2013-04-22 02:00:00,38.3,32.4,30.45,South,175,4.0,9.0,79,0.00,,,0.00,Wunderground v.1.15,2013-04-22 06:00:00,
2013-04-22 02:05:00,38.1,32.2,30.45,SSW,203,4.0,9.0,79,0.00,,,0.00,Wunderground v.1.15,2013-04-22 06:05:00,
2013-04-22 02:10:00,38.1,32.2,30.44,SSE,156,4.0,4.0,79,0.00,,,0.00,Wunderground v.1.15,2013-04-22 06:10:00,
2013-04-22 02:20:00,37.9,32.0,30.44,SSW,205,4.0,9.0,79,0.00,,,0.00,Wunderground v.1.15,2013-04-22 06:20:00,
2013-04-22 02:30:00,37.7,31.8,30.44,SSW,200,4.0,9.0,79,0.00,,,0.00,Wunderground v.1.15,2013-04-22 06:30:00,
2013-04-22 02:35:00,37.5,31.6,30.44,South,181,4.0,9.0,79,0.00,,,0.00,Wunderground v.1.15,2013-04-22 06:35:00,
2013-04-22 02:40:00,37.4,31.8,30.44,SSW,194,4.0,4.0,80,0.00,,,0.00,Wunderground v.1.15,2013-04-22 06:40:00,
2013-04-22 02:45:00,37.2,31.6,30.44,SE,143,3.0,9.0,80,0.00,,,0.00,Wunderground v.1.15,2013-04-22 06:45:00,
2013-04-22 02:50:00,37.1,31.5,30.44,SSW,194,4.0,4.0,80,0.00,,,0.00,Wunderground v.1.15,2013-04-22 06:50:00,
2013-04-22 03:00:00,36.9,31.3,30.43,SSW,192,3.0,6.0,80,0.00,,,0.00,Wunderground v.1.15,2013-04-22 07:00:00,
2013-04-22 03:10:00,36.8,31.2,30.43,SSW,197,4.0,4.0,80,0.00,,,0.00,Wunderground v.1.15,2013-04-22 07:10:00,
2013-04-22 03:20:00,36.6,31.0,30.42,SSW,204,4.0,5.0,80,0.00,,,0.00,Wunderground v.1.15,2013-04-22 07:20:00,
2013-04-22 03:25:00,36.5,30.9,30.43,SSW,211,4.0,5.0,80,0.00,,,0.00,Wunderground v.1.15,2013-04-22 07:25:00,
2013-04-22 03:35:00,36.4,31.1,30.42,SSW,195,5.0,11.0,81,0.00,,,0.00,Wunderground v.1.15,2013-04-22 07:35:00,
2013-04-22 03:40:00,36.3,31.0,30.42,SSW,210,4.0,11.0,81,0.00,,,0.00,Wunderground v.1.15,2013-04-22 07:40:00,
2013-04-22 03:45:00,36.2,30.9,30.42,WSW,240,4.0,11.0,81,0.00,,,0.00,Wunderground v.1.15,2013-04-22 07:45:00,
2013-04-22 03:50:00,36.1,30.8,30.42,SW,215,4.0,4.0,81,0.00,,,0.00,Wunderground v.1.15,2013-04-22 07:50:00,
2013-04-22 03:55:00,36.0,30.7,30.42,SW,231,4.0,11.0,81,0.00,,,0.00,Wunderground v.1.15,2013-04-22 07:55:00,
2013-04-22 04:00:00,35.9,30.6,30.42,SW,231,5.0,11.0,81,0.00,,,0.00,Wunderground v.1.15,2013-04-22 08:00:00,
2013-04-22 04:10:00,35.7,30.7,30.42,South,186,4.0,4.0,82,0.00,,,0.00,Wunderground v.1.15,2013-04-22 08:10:00,
2013-04-22 04:15:00,35.7,30.7,30.41,SW,214,5.0,5.0,82,0.00,,,0.00,Wunderground v.1.15,2013-04-22 08:15:00,
2013-04-22 04:25:00,35.6,30.6,30.41,SSW,205,5.0,11.0,82,0.00,,,0.00,Wunderground v.1.15,2013-04-22 08:25:00,
2013-04-22 04:30:00,35.5,30.5,30.41,SSW,205,5.0,5.0,82,0.00,,,0.00,Wunderground v.1.15,2013-04-22 08:30:00,
2013-04-22 04:35:00,35.4,30.5,30.41,SW,224,4.0,11.0,82,0.00,,,0.00,Wunderground v.1.15,2013-04-22 08:35:00,
2013-04-22 04:45:00,35.3,30.4,30.41,SSW,197,4.0,11.0,82,0.00,,,0.00,Wunderground v.1.15,2013-04-22 08:45:00,
2013-04-22 04:50:00,35.3,30.4,30.41,South,190,4.0,4.0,82,0.00,,,0.00,Wunderground v.1.15,2013-04-22 08:50:00,
2013-04-22 04:55:00,35.1,30.2,30.41,SSW,201,4.0,11.0,82,0.00,,,0.00,Wunderground v.1.15,2013-04-22 08:55:00,
2013-04-22 05:00:00,35.1,30.2,30.41,SW,231,4.0,4.0,82,0.00,,,0.00,Wunderground v.1.15,2013-04-22 09:00:00,
2013-04-22 05:05:00,35.1,30.2,30.41,SSW,197,4.0,11.0,82,0.00,,,0.00,Wunderground v.1.15,2013-04-22 09:05:00,
2013-04-22 05:15:00,35.1,30.2,30.41,SSW,198,5.0,11.0,82,0.00,,,0.00,Wunderground v.1.15,2013-04-22 09:15:00,
2013-04-22 05:20:00,35.0,30.1,30.41,SSE,166,5.0,5.0,82,0.00,,,0.00,Wunderground v.1.15,2013-04-22 09:20:00,
2013-04-22 05:30:00,34.8,30.2,30.40,SW,214,3.0,11.0,83,0.00,,,0.00,Wunderground v.1.15,2013-04-22 09:30:00,
2013-04-22 05:35:00,34.7,30.1,30.40,SW,217,4.0,11.0,83,0.00,,,0.00,Wunderground v.1.15,2013-04-22 09:35:00,
2013-04-22 05:40:00,34.7,30.1,30.40,WSW,242,4.0,11.0,83,0.00,,,0.00,Wunderground v.1.15,2013-04-22 09:40:00,
2013-04-22 05:50:00,34.7,30.1,30.40,SW,217,4.0,11.0,83,0.00,,,0.00,Wunderground v.1.15,2013-04-22 09:50:00,
2013-04-22 05:55:00,34.7,30.1,30.40,SSW,195,4.0,11.0,83,0.00,,,0.00,Wunderground v.1.15,2013-04-22 09:55:00,
2013-04-22 06:00:00,34.7,30.1,30.40,South,189,5.0,11.0,83,0.00,,,0.00,Wunderground v.1.15,2013-04-22 10:00:00,
2013-04-22 06:05:00,34.7,30.1,30.40,SSW,207,4.0,11.0,83,0.00,,,0.00,Wunderground v.1.15,2013-04-22 10:05:00,
2013-04-22 06:10:00,34.7,30.1,30.40,SSW,211,4.0,11.0,83,0.00,,,0.00,Wunderground v.1.15,2013-04-22 10:10:00,
2013-04-22 06:15:00,34.7,30.1,30.40,SW,217,4.0,11.0,83,0.00,,,0.00,Wunderground v.1.15,2013-04-22 10:15:00,
2013-04-22 06:25:00,34.6,30.0,30.40,SSW,204,3.0,11.0,83,0.00,,,0.00,Wunderground v.1.15,2013-04-22 10:25:00,
2013-04-22 06:35:00,34.6,30.0,30.40,SW,233,3.0,11.0,83,0.00,,,0.00,Wunderground v.1.15,2013-04-22 10:35:00,
2013-04-22 06:40:00,34.6,30.0,30.40,SW,215,2.0,11.0,83,0.00,,,0.00,Wunderground v.1.15,2013-04-22 10:40:00,
2013-04-22 06:45:00,34.6,30.0,30.40,SSW,205,2.0,11.0,83,0.00,,,0.00,Wunderground v.1.15,2013-04-22 10:45:00,
2013-04-22 06:50:00,34.6,30.0,30.40,SW,218,2.0,11.0,83,0.00,,,0.00,Wunderground v.1.15,2013-04-22 10:50:00,
2013-04-22 07:00:00,34.6,30.0,30.40,SSW,205,2.0,2.0,83,0.00,,,0.00,Wunderground v.1.15,2013-04-22 11:00:00,
2013-04-22 07:10:00,34.7,29.8,30.40,SW,231,3.0,3.0,82,0.00,,,0.00,Wunderground v.1.15,2013-04-22 11:10:00,
2013-04-22 07:15:00,34.8,29.9,30.40,WSW,240,3.0,4.0,82,0.00,,,0.00,Wunderground v.1.15,2013-04-22 11:15:00,
2013-04-22 07:25:00,35.2,30.0,30.40,SW,225,4.0,7.0,81,0.00,,,0.00,Wunderground v.1.15,2013-04-22 11:25:00,
2013-04-22 07:35:00,35.5,30.2,30.40,SW,219,4.0,9.0,81,0.00,,,0.00,Wunderground v.1.15,2013-04-22 11:35:00,
2013-04-22 07:40:00,35.6,30.0,30.40,SSW,204,4.0,4.0,80,0.00,,,0.00,Wunderground v.1.15,2013-04-22 11:40:00,
2013-04-22 07:45:00,35.7,30.1,30.40,South,181,4.0,9.0,80,0.00,,,0.00,Wunderground v.1.15,2013-04-22 11:45:00,
2013-04-22 07:50:00,35.9,30.3,30.40,SW,222,4.0,9.0,80,0.00,,,0.00,Wunderground v.1.15,2013-04-22 11:50:00,
2013-04-22 07:55:00,36.2,30.3,30.41,SSW,198,4.0,9.0,79,0.00,,,0.00,Wunderground v.1.15,2013-04-22 11:55:00,
2013-04-22 08:05:00,36.8,30.9,30.41,SSW,212,4.0,9.0,79,0.00,,,0.00,Wunderground v.1.15,2013-04-22 12:05:00,
2013-04-22 08:10:00,37.2,30.7,30.41,SSW,210,4.0,9.0,77,0.00,,,0.00,Wunderground v.1.15,2013-04-22 12:10:00,
2013-04-22 08:15:00,37.5,30.9,30.41,SW,215,5.0,9.0,77,0.00,,,0.00,Wunderground v.1.15,2013-04-22 12:15:00,
2013-04-22 08:20:00,37.9,31.3,30.41,SSW,210,4.0,9.0,77,0.00,,,0.00,Wunderground v.1.15,2013-04-22 12:20:00,
2013-04-22 08:30:00,38.7,31.8,30.41,SW,224,4.0,9.0,76,0.00,,,0.00,Wunderground v.1.15,2013-04-22 12:30:00,
2013-04-22 08:40:00,39.7,32.1,30.40,SE,124,4.0,4.0,74,0.00,,,0.00,Wunderground v.1.15,2013-04-22 12:40:00,
2013-04-22 08:45:00,40.4,32.4,30.40,SSW,200,4.0,9.0,73,0.00,,,0.00,Wunderground v.1.15,2013-04-22 12:45:00,
2013-04-22 08:50:00,41.0,32.7,30.40,SSW,203,3.0,3.0,72,0.00,,,0.00,Wunderground v.1.15,2013-04-22 12:50:00,
2013-04-22 08:55:00,41.4,32.3,30.40,SW,218,3.0,4.0,70,0.00,,,0.00,Wunderground v.1.15,2013-04-22 12:55:00,
2013-04-22 09:00:00,42.0,32.6,30.40,SW,226,3.0,9.0,69,0.00,,,0.00,Wunderground v.1.15,2013-04-22 13:00:00,
2013-04-22 09:05:00,42.6,32.8,30.39,SSW,198,3.0,9.0,68,0.00,,,0.00,Wunderground v.1.15,2013-04-22 13:05:00,
2013-04-22 09:15:00,43.6,33.0,30.39,SW,235,4.0,9.0,66,0.00,,,0.00,Wunderground v.1.15,2013-04-22 13:15:00,
2013-04-22 09:20:00,44.1,31.9,30.39,SW,236,5.0,9.0,62,0.00,,,0.00,Wunderground v.1.15,2013-04-22 13:20:00,
2013-04-22 09:25:00,44.3,31.7,30.39,SW,233,6.0,9.0,61,0.00,,,0.00,Wunderground v.1.15,2013-04-22 13:25:00,
2013-04-22 09:35:00,45.1,32.0,30.39,SW,235,6.0,9.0,60,0.00,,,0.00,Wunderground v.1.15,2013-04-22 13:35:00,
2013-04-22 09:40:00,45.3,31.4,30.39,WSW,249,7.0,9.0,58,0.00,,,0.00,Wunderground v.1.15,2013-04-22 13:40:00,
2013-04-22 09:50:00,46.4,32.4,30.39,WSW,243,7.0,7.0,58,0.00,,,0.00,Wunderground v.1.15,2013-04-22 13:50:00,
2013-04-22 09:55:00,46.8,32.4,30.39,WSW,239,7.0,9.0,57,0.00,,,0.00,Wunderground v.1.15,2013-04-22 13:55:00,
2013-04-22 10:00:00,46.9,32.0,30.38,WSW,238,7.0,7.0,56,0.00,,,0.00,Wunderground v.1.15,2013-04-22 14:00:00,
2013-04-22 10:10:00,48.0,33.0,30.39,WSW,256,5.0,5.0,56,0.00,,,0.00,Wunderground v.1.15,2013-04-22 14:10:00,
2013-04-22 10:20:00,49.0,32.1,30.38,WSW,238,8.0,8.0,52,0.00,,,0.00,Wunderground v.1.15,2013-04-22 14:20:00,
2013-04-22 10:30:00,49.8,31.4,30.38,WSW,245,7.0,8.0,49,0.00,,,0.00,Wunderground v.1.15,2013-04-22 14:30:00,
2013-04-22 10:35:00,50.4,31.9,30.38,WSW,250,7.0,10.0,49,0.00,,,0.00,Wunderground v.1.15,2013-04-22 14:35:00,
2013-04-22 10:40:00,50.8,31.8,30.38,SW,229,7.0,7.0,48,0.00,,,0.00,Wunderground v.1.15,2013-04-22 14:40:00,
2013-04-22 10:45:00,51.3,32.8,30.38,WSW,242,7.0,10.0,49,0.00,,,0.00,Wunderground v.1.15,2013-04-22 14:45:00,
2013-04-22 10:55:00,52.2,33.6,30.38,SW,233,5.0,6.0,49,0.00,,,0.00,Wunderground v.1.15,2013-04-22 14:55:00,
2013-04-22 11:00:00,52.9,33.7,30.38,SW,233,4.0,10.0,48,0.00,,,0.00,Wunderground v.1.15,2013-04-22 15:00:00,
2013-04-22 11:05:00,52.9,32.1,30.38,WSW,240,5.0,10.0,45,0.00,,,0.00,Wunderground v.1.15,2013-04-22 15:05:00,
2013-04-22 11:10:00,53.0,31.6,30.38,SW,214,5.0,10.0,44,0.00,,,0.00,Wunderground v.1.15,2013-04-22 15:10:00,
2013-04-22 11:20:00,53.3,31.4,30.38,WSW,240,7.0,10.0,43,0.00,,,0.00,Wunderground v.1.15,2013-04-22 15:20:00,
2013-04-22 11:30:00,53.7,31.1,30.38,SW,236,8.0,10.0,42,0.00,,,0.00,Wunderground v.1.15,2013-04-22 15:30:00,
2013-04-22 11:35:00,53.8,30.6,30.38,WSW,240,8.0,10.0,41,0.00,,,0.00,Wunderground v.1.15,2013-04-22 15:35:00,
2013-04-22 11:40:00,54.2,32.2,30.38,WSW,245,7.0,7.0,43,0.00,,,0.00,Wunderground v.1.15,2013-04-22 15:40:00,
2013-04-22 11:45:00,54.6,33.1,30.38,SW,233,6.0,10.0,44,0.00,,,0.00,Wunderground v.1.15,2013-04-22 15:45:00,
2013-04-22 11:50:00,54.9,32.2,30.37,West,280,6.0,10.0,42,0.00,,,0.00,Wunderground v.1.15,2013-04-22 15:50:00,
2013-04-22 11:55:00,55.0,32.3,30.37,South,186,5.0,10.0,42,0.00,,,0.00,Wunderground v.1.15,2013-04-22 15:55:00,
2013-04-22 12:00:00,55.3,30.1,30.37,WSW,245,4.0,9.0,38,0.00,,,0.00,Wunderground v.1.15,2013-04-22 16:00:00,
2013-04-22 12:10:00,55.6,31.0,30.36,West,263,5.0,5.0,39,0.00,,,0.00,Wunderground v.1.15,2013-04-22 16:10:00,
2013-04-22 12:20:00,55.8,30.5,30.36,SW,232,5.0,5.0,38,0.00,,,0.00,Wunderground v.1.15,2013-04-22 16:20:00,
2013-04-22 12:25:00,55.8,31.8,30.36,SW,229,7.0,7.0,40,0.00,,,0.00,Wunderground v.1.15,2013-04-22 16:25:00,
2013-04-22 12:30:00,56.0,32.0,30.36,WSW,250,6.0,6.0,40,0.00,,,0.00,Wunderground v.1.15,2013-04-22 16:30:00,
2013-04-22 12:35:00,56.1,30.2,30.36,SW,228,5.0,12.0,37,0.00,,,0.00,Wunderground v.1.15,2013-04-22 16:35:00,
2013-04-22 12:40:00,56.0,30.7,30.35,WSW,245,8.0,8.0,38,0.00,,,0.00,Wunderground v.1.15,2013-04-22 16:40:00,
2013-04-22 12:45:00,56.6,31.3,30.35,SW,222,6.0,12.0,38,0.00,,,0.00,Wunderground v.1.15,2013-04-22 16:45:00,
2013-04-22 12:50:00,56.5,30.5,30.35,West,263,5.0,12.0,37,0.00,,,0.00,Wunderground v.1.15,2013-04-22 16:50:00,
2013-04-22 12:55:00,56.5,31.8,30.35,SW,232,7.0,12.0,39,0.00,,,0.00,Wunderground v.1.15,2013-04-22 16:55:00,
2013-04-22 13:00:00,56.6,29.9,30.34,SW,214,7.0,7.0,36,0.00,,,0.00,Wunderground v.1.15,2013-04-22 17:00:00,
2013-04-22 13:10:00,57.4,30.6,30.34,SSW,207,4.0,12.0,36,0.00,,,0.00,Wunderground v.1.15,2013-04-22 17:10:00,
2013-04-22 13:15:00,57.3,30.5,30.34,WSW,248,5.0,12.0,36,0.00,,,0.00,Wunderground v.1.15,2013-04-22 17:15:00,
2013-04-22 13:25:00,57.4,30.6,30.33,WSW,250,8.0,12.0,36,0.00,,,0.00,Wunderground v.1.15,2013-04-22 17:25:00,
2013-04-22 13:30:00,57.1,29.7,30.33,West,278,10.0,10.0,35,0.00,,,0.00,Wunderground v.1.15,2013-04-22 17:30:00,
2013-04-22 13:35:00,57.1,29.7,30.32,SSW,193,8.0,12.0,35,0.00,,,0.00,Wunderground v.1.15,2013-04-22 17:35:00,
2013-04-22 13:45:00,58.0,30.5,30.32,WSW,240,4.0,12.0,35,0.00,,,0.00,Wunderground v.1.15,2013-04-22 17:45:00,
2013-04-22 13:50:00,57.8,28.9,30.32,WSW,250,6.0,12.0,33,0.00,,,0.00,Wunderground v.1.15,2013-04-22 17:50:00,
2013-04-22 13:55:00,58.0,29.8,30.31,West,260,8.0,12.0,34,0.00,,,0.00,Wunderground v.1.15,2013-04-22 17:55:00,
2013-04-22 14:00:00,57.8,26.5,30.31,SW,221,9.0,9.0,30,0.00,,,0.00,Wunderground v.1.15,2013-04-22 18:00:00,
2013-04-22 14:10:00,58.6,31.7,30.30,SE,136,6.0,6.0,36,0.00,,,0.00,Wunderground v.1.15,2013-04-22 18:10:00,
2013-04-22 14:15:00,59.0,29.9,30.30,SSW,201,6.0,9.0,33,0.00,,,0.00,Wunderground v.1.15,2013-04-22 18:15:00,
2013-04-22 14:25:00,59.0,29.2,30.30,SSW,205,9.0,9.0,32,0.00,,,0.00,Wunderground v.1.15,2013-04-22 18:25:00,
2013-04-22 14:30:00,59.2,28.5,30.30,SW,226,7.0,8.0,31,0.00,,,0.00,Wunderground v.1.15,2013-04-22 18:30:00,
2013-04-22 14:35:00,58.8,29.7,30.30,WSW,253,8.0,14.0,33,0.00,,,0.00,Wunderground v.1.15,2013-04-22 18:35:00,
2013-04-22 14:45:00,59.6,28.1,30.30,WSW,245,6.0,14.0,30,0.00,,,0.00,Wunderground v.1.15,2013-04-22 18:45:00,
2013-04-22 14:55:00,59.6,31.9,30.30,WSW,246,8.0,9.0,35,0.00,,,0.00,Wunderground v.1.15,2013-04-22 18:55:00,
2013-04-22 15:00:00,59.4,28.7,30.30,SSW,207,7.0,7.0,31,0.00,,,0.00,Wunderground v.1.15,2013-04-22 19:00:00,
2013-04-22 15:05:00,59.5,28.8,30.30,WSW,248,8.0,11.0,31,0.00,,,0.00,Wunderground v.1.15,2013-04-22 19:05:00,
2013-04-22 15:10:00,59.4,30.3,30.30,SW,221,9.0,9.0,33,0.00,,,0.00,Wunderground v.1.15,2013-04-22 19:10:00,
2013-04-22 15:15:00,59.6,30.4,30.29,WSW,257,8.0,14.0,33,0.00,,,0.00,Wunderground v.1.15,2013-04-22 19:15:00,
2013-04-22 15:25:00,59.9,30.7,30.29,West,259,6.0,14.0,33,0.00,,,0.00,Wunderground v.1.15,2013-04-22 19:25:00,
2013-04-22 15:30:00,60.2,31.0,30.29,SSE,158,8.0,8.0,33,0.00,,,0.00,Wunderground v.1.15,2013-04-22 19:30:00,
2013-04-22 15:35:00,60.3,32.5,30.28,WSW,249,8.0,13.0,35,0.00,,,0.00,Wunderground v.1.15,2013-04-22 19:35:00,
2013-04-22 15:40:00,60.2,30.2,30.28,WSW,242,8.0,14.0,32,0.00,,,0.00,Wunderground v.1.15,2013-04-22 19:40:00,
2013-04-22 15:45:00,60.5,29.7,30.27,SW,214,9.0,14.0,31,0.00,,,0.00,Wunderground v.1.15,2013-04-22 19:45:00,
2013-04-22 15:50:00,60.7,30.6,30.27,SW,226,7.0,14.0,32,0.00,,,0.00,Wunderground v.1.15,2013-04-22 19:50:00,
2013-04-22 16:00:00,60.8,31.5,30.27,WSW,238,6.0,6.0,33,0.00,,,0.00,Wunderground v.1.15,2013-04-22 20:00:00,
2013-04-22 16:10:00,60.6,32.8,30.26,SW,225,6.0,6.0,35,0.00,,,0.00,Wunderground v.1.15,2013-04-22 20:10:00,
2013-04-22 16:15:00,61.1,31.8,30.26,SE,142,5.0,6.0,33,0.00,,,0.00,Wunderground v.1.15,2013-04-22 20:15:00,
2013-04-22 16:25:00,61.0,33.8,30.26,SW,215,7.0,7.0,36,0.00,,,0.00,Wunderground v.1.15,2013-04-22 20:25:00,
2013-04-22 16:35:00,61.1,31.8,30.25,SW,232,6.0,7.0,33,0.00,,,0.00,Wunderground v.1.15,2013-04-22 20:35:00,
2013-04-22 16:40:00,60.9,32.3,30.25,SSW,212,7.0,15.0,34,0.00,,,0.00,Wunderground v.1.15,2013-04-22 20:40:00,
2013-04-22 16:45:00,61.0,32.4,30.25,WSW,250,7.0,15.0,34,0.00,,,0.00,Wunderground v.1.15,2013-04-22 20:45:00,
2013-04-22 16:50:00,60.9,33.7,30.24,WSW,240,7.0,7.0,36,0.00,,,0.00,Wunderground v.1.15,2013-04-22 20:50:00,
2013-04-22 16:55:00,61.3,32.7,30.24,SSW,201,6.0,15.0,34,0.00,,,0.00,Wunderground v.1.15,2013-04-22 20:55:00,
2013-04-22 17:00:00,61.4,32.0,30.24,SSW,212,5.0,5.0,33,0.00,,,0.00,Wunderground v.1.15,2013-04-22 21:00:00,
2013-04-22 17:10:00,61.7,32.3,30.23,SW,236,5.0,15.0,33,0.00,,,0.00,Wunderground v.1.15,2013-04-22 21:10:00,
2013-04-22 17:15:00,61.8,31.6,30.23,SSW,194,6.0,15.0,32,0.00,,,0.00,Wunderground v.1.15,2013-04-22 21:15:00,
2013-04-22 17:20:00,61.5,31.3,30.22,SW,235,7.0,7.0,32,0.00,,,0.00,Wunderground v.1.15,2013-04-22 21:20:00,
2013-04-22 17:30:00,61.5,32.1,30.22,WSW,243,6.0,15.0,33,0.00,,,0.00,Wunderground v.1.15,2013-04-22 21:30:00,
2013-04-22 17:35:00,61.6,30.6,30.22,WSW,242,8.0,15.0,31,0.00,,,0.00,Wunderground v.1.15,2013-04-22 21:35:00,
2013-04-22 17:45:00,61.6,30.6,30.21,SE,146,8.0,15.0,31,0.00,,,0.00,Wunderground v.1.15,2013-04-22 21:45:00,
2013-04-22 17:50:00,61.8,30.8,30.21,WSW,248,7.0,15.0,31,0.00,,,0.00,Wunderground v.1.15,2013-04-22 21:50:00,
2013-04-22 17:55:00,62.0,32.5,30.21,SW,232,8.0,15.0,33,0.00,,,0.00,Wunderground v.1.15,2013-04-22 21:55:00,
2013-04-22 18:00:00,61.9,32.5,30.20,WSW,242,8.0,12.0,33,0.00,,,0.00,Wunderground v.1.15,2013-04-22 22:00:00,
2013-04-22 18:10:00,62.2,32.0,30.20,SSW,194,8.0,8.0,32,0.00,,,0.00,Wunderground v.1.15,2013-04-22 22:10:00,
2013-04-22 18:15:00,62.1,32.6,30.20,SSW,210,8.0,8.0,33,0.00,,,0.00,Wunderground v.1.15,2013-04-22 22:15:00,
2013-04-22 18:20:00,62.1,33.4,30.20,WSW,246,7.0,7.0,34,0.00,,,0.00,Wunderground v.1.15,2013-04-22 22:20:00,
2013-04-22 18:30:00,62.0,34.7,30.19,WSW,238,7.0,7.0,36,0.00,,,0.00,Wunderground v.1.15,2013-04-22 22:30:00,
2013-04-22 18:35:00,62.2,34.9,30.19,WSW,239,7.0,8.0,36,0.00,,,0.00,Wunderground v.1.15,2013-04-22 22:35:00,
2013-04-22 18:40:00,62.1,33.4,30.19,SW,229,8.0,12.0,34,0.00,,,0.00,Wunderground v.1.15,2013-04-22 22:40:00,
2013-04-22 18:50:00,62.0,34.7,30.19,SW,233,8.0,8.0,36,0.00,,,0.00,Wunderground v.1.15,2013-04-22 22:50:00,
2013-04-22 18:55:00,62.0,34.7,30.19,South,186,7.0,12.0,36,0.00,,,0.00,Wunderground v.1.15,2013-04-22 22:55:00,
2013-04-22 19:00:00,62.0,34.0,30.19,SW,218,6.0,12.0,35,0.00,,,0.00,Wunderground v.1.15,2013-04-22 23:00:00,
2013-04-22 19:05:00,62.0,34.7,30.19,SW,224,6.0,12.0,36,0.00,,,0.00,Wunderground v.1.15,2013-04-22 23:05:00,
2013-04-22 19:10:00,62.0,35.4,30.19,WSW,248,6.0,12.0,37,0.00,,,0.00,Wunderground v.1.15,2013-04-22 23:10:00,
2013-04-22 19:15:00,61.9,34.6,30.18,SW,230,9.0,12.0,36,0.00,,,0.00,Wunderground v.1.15,2013-04-22 23:15:00,
2013-04-22 19:25:00,62.1,36.2,30.18,SW,235,4.0,12.0,38,0.00,,,0.00,Wunderground v.1.15,2013-04-22 23:25:00,
2013-04-22 19:35:00,61.9,35.3,30.18,SW,233,5.0,12.0,37,0.00,,,0.00,Wunderground v.1.15,2013-04-22 23:35:00,
2013-04-22 19:40:00,61.8,35.9,30.18,SSW,207,4.0,4.0,38,0.00,,,0.00,Wunderground v.1.15,2013-04-22 23:40:00,
2013-04-22 19:45:00,61.7,36.5,30.17,SW,218,3.0,6.0,39,0.00,,,0.00,Wunderground v.1.15,2013-04-22 23:45:00,
2013-04-22 19:50:00,61.6,35.7,30.17,SW,229,4.0,12.0,38,0.00,,,0.00,Wunderground v.1.15,2013-04-22 23:50:00,
2013-04-22 20:00:00,61.3,36.1,30.17,SSW,203,5.0,5.0,39,0.00,,,0.00,Wunderground v.1.15,2013-04-23 00:00:00,
2013-04-22 20:10:00,60.9,35.8,30.17,SSW,198,4.0,4.0,39,0.00,,,0.00,Wunderground v.1.15,2013-04-23 00:10:00,
2013-04-22 20:15:00,60.6,36.1,30.17,SSW,194,4.0,4.0,40,0.00,,,0.00,Wunderground v.1.15,2013-04-23 00:15:00,
2013-04-22 20:25:00,60.2,36.4,30.17,SSE,167,3.0,3.0,41,0.00,,,0.00,Wunderground v.1.15,2013-04-23 00:25:00,
2013-04-22 20:35:00,59.7,36.6,30.17,South,174,2.0,14.0,42,0.00,,,0.00,Wunderground v.1.15,2013-04-23 00:35:00,
2013-04-22 20:40:00,59.4,36.9,30.17,South,176,2.0,14.0,43,0.00,,,0.00,Wunderground v.1.15,2013-04-23 00:40:00,
2013-04-22 20:45:00,59.3,36.8,30.17,SSE,167,2.0,14.0,43,0.00,,,0.00,Wunderground v.1.15,2013-04-23 00:45:00,
2013-04-22 20:50:00,59.1,36.6,30.17,SSE,149,2.0,14.0,43,0.00,,,0.00,Wunderground v.1.15,2013-04-23 00:50:00,
2013-04-22 20:55:00,59.0,37.1,30.17,SSE,163,2.0,14.0,44,0.00,,,0.00,Wunderground v.1.15,2013-04-23 00:55:00,
2013-04-22 21:05:00,58.5,36.6,30.18,South,175,2.0,14.0,44,0.00,,,0.00,Wunderground v.1.15,2013-04-23 01:05:00,
2013-04-22 21:10:00,58.3,37.0,30.18,SSE,166,2.0,14.0,45,0.00,,,0.00,Wunderground v.1.15,2013-04-23 01:10:00,
2013-04-22 21:15:00,58.2,36.9,30.18,SSW,207,2.0,14.0,45,0.00,,,0.00,Wunderground v.1.15,2013-04-23 01:15:00,
2013-04-22 21:20:00,58.1,36.9,30.18,SSW,201,2.0,14.0,45,0.00,,,0.00,Wunderground v.1.15,2013-04-23 01:20:00,
2013-04-22 21:30:00,57.8,37.1,30.17,SSW,201,3.0,14.0,46,0.00,,,0.00,Wunderground v.1.15,2013-04-23 01:30:00,
2013-04-22 21:40:00,57.4,37.3,30.18,SSW,207,3.0,14.0,47,0.00,,,0.00,Wunderground v.1.15,2013-04-23 01:40:00,
2013-04-22 21:45:00,57.3,37.2,30.18,SSW,198,2.0,14.0,47,0.00,,,0.00,Wunderground v.1.15,2013-04-23 01:45:00,
2013-04-22 21:50:00,57.4,37.3,30.18,SSW,200,3.0,14.0,47,0.00,,,0.00,Wunderground v.1.15,2013-04-23 01:50:00,
2013-04-22 21:55:00,57.4,37.3,30.18,SSW,201,3.0,14.0,47,0.00,,,0.00,Wunderground v.1.15,2013-04-23 01:55:00,
2013-04-22 22:00:00,57.3,37.2,30.18,SSW,207,3.0,3.0,47,0.00,,,0.00,Wunderground v.1.15,2013-04-23 02:00:00,
2013-04-22 22:10:00,57.1,37.6,30.18,SSE,159,3.0,3.0,48,0.00,,,0.00,Wunderground v.1.15,2013-04-23 02:10:00,
2013-04-22 22:15:00,56.9,37.4,30.17,SSW,195,3.0,3.0,48,0.00,,,0.00,Wunderground v.1.15,2013-04-23 02:15:00,
2013-04-22 22:20:00,56.7,37.7,30.18,SSW,212,3.0,4.0,49,0.00,,,0.00,Wunderground v.1.15,2013-04-23 02:20:00,
2013-04-22 22:30:00,56.7,37.7,30.18,SW,235,4.0,5.0,49,0.00,,,0.00,Wunderground v.1.15,2013-04-23 02:30:00,
2013-04-22 22:35:00,56.6,37.6,30.17,SSW,204,4.0,5.0,49,0.00,,,0.00,Wunderground v.1.15,2013-04-23 02:35:00,
2013-04-22 22:40:00,56.5,38.1,30.18,SW,218,4.0,5.0,50,0.00,,,0.00,Wunderground v.1.15,2013-04-23 02:40:00,
2013-04-22 22:50:00,56.1,37.7,30.18,SW,218,3.0,5.0,50,0.00,,,0.00,Wunderground v.1.15,2013-04-23 02:50:00,
2013-04-22 22:55:00,56.1,37.7,30.17,SSW,207,3.0,5.0,50,0.00,,,0.00,Wunderground v.1.15,2013-04-23 02:55:00,
2013-04-22 23:00:00,56.0,37.6,30.18,SW,214,2.0,5.0,50,0.00,,,0.00,Wunderground v.1.15,2013-04-23 03:00:00,
2013-04-22 23:05:00,55.9,37.5,30.18,SW,221,3.0,5.0,50,0.00,,,0.00,Wunderground v.1.15,2013-04-23 03:05:00,
2013-04-22 23:10:00,55.9,38.0,30.18,SSW,208,3.0,3.0,51,0.00,,,0.00,Wunderground v.1.15,2013-04-23 03:10:00,
2013-04-22 23:15:00,55.8,37.9,30.18,SW,226,3.0,5.0,51,0.00,,,0.00,Wunderground v.1.15,2013-04-23 03:15:00,
2013-04-22 23:20:00,55.7,37.8,30.18,SW,226,2.0,5.0,51,0.00,,,0.00,Wunderground v.1.15,2013-04-23 03:20:00,
2013-04-22 23:25:00,55.7,37.8,30.18,SSW,203,2.0,5.0,51,0.00,,,0.00,Wunderground v.1.15,2013-04-23 03:25:00,
2013-04-22 23:35:00,55.3,38.0,30.17,SSW,210,3.0,5.0,52,0.00,,,0.00,Wunderground v.1.15,2013-04-23 03:35:00,
2013-04-22 23:40:00,55.1,37.8,30.17,South,183,3.0,3.0,52,0.00,,,0.00,Wunderground v.1.15,2013-04-23 03:40:00,
2013-04-22 23:45:00,55.1,37.8,30.17,SW,214,3.0,5.0,52,0.00,,,0.00,Wunderground v.1.15,2013-04-23 03:45:00,
2013-04-22 23:55:00,54.9,37.6,30.17,South,177,4.0,5.0,52,0.00,,,0.00,Wunderground v.1.15,2013-04-23 03:55:00,